International Skating Union - Official Site

ISU World Cup Salt Lake City
November 20-22, 2015

Draw | Lap Times | Index | World Cup

Referee: Dan  IMMERFALL  (USA)
Starter: Darrell  HAACK  (CAN)
StartTime: EndTime: Air Temp: Ice Temp: Humidity:
14:43 14:52 17.8℃ -9℃ 16.9%
Result Mass Start Men
Rankings as of Nov 22 2015 4:19PM
Rank: No.: Name: Nation: Time: Behind: Points:
1 92 Arjan  Stroetinga NED NED 7:19.76 100
2 45 Fabio  Francolini ITA ITA 7:20.38 0.62 80
3 4 Bart  Swings BEL BEL 7:20.51 0.75 70
4 36 Alexis  Contin FRA FRA 7:34.56 14.80 60
5 31 Viktor-Hald  Thorup DEN DEN 7:40.01 20.25 50
6 69 Cheol-Min  Kim KOR KOR 7:47.12 27.36 45
7 78 Jorrit  Bergsma NED NED 7:24.73 4.97 40
8 25 Longjiang  Sun CHN CHN 7:33.24 13.48 36
9 99 Peter  Michael NZL NZL 7:37.45 17.69 32
10 75 Seung-Hoon  Lee KOR KOR 7:26.45 6.69 28
11 125 KC  Boutiette USA USA 7:26.56 6.80 24
12 53 Shota  Nakamura JPN JPN 7:26.63 6.87 21
13 8 Jordan  Belchos CAN CAN 7:27.20 7.44 18
14 98 Reyon  Kay NZL NZL 7:27.26 7.50 16
15 46 Andrea  Giovannini ITA ITA 7:27.99 8.23 14
16 5 Mathias  Vosté BEL BEL 7:29.15 9.39 12
17 3 Linus  Heidegger AUT AUT 7:31.03 11.27 10
18 20 Robert  Watson CAN CAN 7:31.06 11.30 8
19 116 Yevgeny  Seryaev RUS RUS 7:31.22 11.46 6
20 59 Shane  Williamson JPN JPN 7:41.99 22.23 5
21 7 Vitaly  Mikhailov BLR BLR 7:43.46 23.70 4
22 2 Armin  Hager AUT AUT 7:44.57 24.81 3
23 122 Livio  Wenger SUI SUI 7:47.39 27.63 2
24 6 Anton  Kapustin BLR BLR 4:58.18 -141.58 1